367  
ASUS44 KMOB 161212  
RWRMOB  
REGIONAL WEATHER ROUNDUP  
NATIONAL WEATHER SERVICE MOBILE AL  
700 AM CDT TUE OCT 16 2018  
 
NOTE: "FAIR" INDICATES FEW OR NO CLOUDS BELOW 12,000 FEET WITH NO  
SIGNIFICANT WEATHER AND/OR S TO VISIBILITY
.  
 
* THESE STATIONS ARE PART OF THE UNIVERSITY OF SOUTH ALABAMA  
MESONET AND ARE NOT UNDER NWS OR FAA QUALITY CONTROL.
 
 
ALZ061>064-161300-  
COASTAL ALABAMA  
 
CITY SKY/WX TMP DP RH WIND PRES REMARKS
 
MOBILE REG APT FOG 76 75 97 NE3 30.09R VSB 1/4  
6HR MIN TEMP: 75; 6HR MAX TEMP: 77;  
 
BROOKLEY FIELD FOG 78 78 100 NE5 30.09R VSB 1/2  
6HR MIN TEMP: 78; 6HR MAX TEMP: 80;  
 
USA CAMPUS* N/A 73 73 100 E2 30.08R  
DOG RIVER* N/A 77 75 94 CALM N/A  
 
 
CITY SKY/WX TMP DP RH WIND PRES REMARKS
 
GULF SHORES FOG 73 73 100 CALM 30.07S VSB 1/4  
 

 
 
ALZ051>060-161300-  
INTERIOR SOUTHWEST AND SOUTH CENTRAL ALABAMA  
 
CITY SKY/WX TMP DP RH WIND PRES REMARKS
 
GREENVILLE CLOUDY 71 67 87 CALM 30.11R FOG  
6HR MIN TEMP: 69; 6HR MAX TEMP: 73;  
 
EVERGREEN FAIR 69 67 93 CALM 30.10F FOG  
6HR MIN TEMP: 69; 6HR MAX TEMP: 72;  
 
ATMORE* N/A N/A N/A N/A N3 30.83R  
ANDALUSIA/OPP FOG 75 72 90 CALM 30.11R VSB 1/4  
6HR MIN TEMP: 74; 6HR MAX TEMP: 76;  
 
ANDALUSIA* N/A N/A N/A N/A CALM 30.11S  
FLORALA APT CLOUDY 72 70 93 CALM 30.12S FOG  
6HR MIN TEMP: 72; 6HR MAX TEMP: 74;  
 
FLORALA* N/A 72 72 100 CALM 30.83S  
 

 
 
FLZ001>006-161300-  
WESTERN FLORIDA PANHANDLE  
 
CITY SKY/WX TMP DP RH WIND PRES REMARKS
 
PENSACOLA FOG 75 74 96 NE3 30.08R VSB 1/4  
6HR MIN TEMP: 75; 6HR MAX TEMP: 79;  
 
NAS PENSACOLA NOT AVBL  
MILTON FOG 73 73 100 CALM 30.09R VSB 1/4  
6HR MIN TEMP: 73; 6HR MAX TEMP: 74;  
 
WHTNG S FIELD FOG 73 73 100 E3 30.09 VSB 1/4  
6HR MIN TEMP: 73; 6HR MAX TEMP: 75;  
 
 
CITY SKY/WX TMP DP RH WIND PRES REMARKS
 
JAY* N/A N/A N/A N/A CALM N/A  
DUKE FIELD FOG 72 72 100 CALM 30.09R VSB 1/8  
CRESTVIEW FOG 72 71 97 CALM 30.11R VSB 1/4  
6HR MIN TEMP: 72; 6HR MAX TEMP: 73;  
 
VALPARAISO FOG 72 72 100 CALM 30.08R VSB 1/8  
6HR MIN TEMP: 72; 6HR MAX TEMP: 76;  
 
DESTIN FOG N/A N/A N/A NE3 30.09R VSB 1/4  
 

 
 
MSZ076-079-161300-  
INTERIOR SOUTHEAST MISSISSIPPI  
 
CITY SKY/WX TMP DP RH WIND PRES REMARKS
 
LEAKESVILLE* NOT AVBL  
AGRICOLA* N/A 72 72 100 NE2 30.08R  
 

 
 
MARINE OBSERVATIONS  
 
STATION/POSITION TIME TEMP WIND PRES WAVE
 
AIR SEA DIR/SP/G HT/PER  
(UTC) (F) (DEG/KT/KT) (MB) (FT/S)  
PETIT BOIS ISLND 1148 79 130/ 4/ 5 1018.8R  
GRAND BAY 1045 79 70/ 7 1019.0R  
KATRINA CUT 1130 80 130/ 8 1018.3R  
CEDAR POINT 1130 78 70/ 6 1018.0S  
E DAUPHIN ISLAND 1100 80 110/ 5/ 6 1018.0R  
MIDDLE BAY LIGHT 1130 76 40/ 8 1017.6S  
USCG MOBILE BAY 1148 75 81 40/ 4/ 6 1018.6R  
STATE DOCKS 1148 76 81 1018.5R  
WEEKS BAY 1045 74 1018.0S  
FORT MORGAN 1148 80 150/ 9/ 10 1017.9F  
12 S ORANGE BCH 1150 81 1018.3R 2/ 5  
PENSACOLA BAY 1148 75 80 20/ 4/ 5 1018.8R  
64 S DAUPHIN ISL 1150 82 130/ 10/ 12 1018.1R 3/ 5  
 

 
 
SELECTED LOCATIONS ACROSS THE REGION  
 
CITY SKY/WX TMP DP RH WIND PRES REMARKS
 
NEW ORLEANS MOCLDY 77 77 100 E5 30.04R  
GULFPORT FOG 78 76 93 NE3 30.05S VSB 3/4  
PASCAGOULA AP FOG 77 75 93 CALM 30.07R VSB 1/2  
PASCAGOULA* N/A 75 75 100 CALM 30.06S  
HATTIESBURG CLOUDY 72 70 93 N5 30.11R  
LAUREL CLOUDY 68 68 100 NE8 30.11F FOG  
MERIDIAN CLOUDY 61 57 87 N10 30.15S  
JACKSON CLOUDY 59 56 89 NE12 30.15F  
MONTGOMERY FOG 71 71 100 CALM 30.12R VSB 1/4  
TROY FOG 67 67 100 CALM 30.12S VSB 3/4  
ASHFORD* N/A N/A N/A N/A CALM 30.11S  
DOTHAN FOG 72 70 93 NE3 30.15R VSB 1/4  
PANAMA CITY N/A N/A N/A N/A NE3 30.09R VSB 0  
 

 
 
 
 
CLICK HERE TO GO TO PREVIOUS BULLETINS.

The Nexlab AL Page
The Nexlab FL Page
The Nexlab MS Page Main Text Page